FENGYUN 1C DEB, 31816

Orbit data source: Space-Track

FENGYUN 1C DEB, 31816 is space debris in SSO originally from a launch on Mon, 10 May 1999 UTC launched from the Taiyaun Space Center, China (TSC). Fengyun 1C debris stems from the Chinese weather satellite Fengyun-1C, which was intentionally destroyed by a Chinese anti-satellite missile in 2007. This event dramatically increased the amount of space debris, with thousands of trackable fragments posing hazards to satellites and human spaceflight. The Fengyun 1C debris cloud has become a focal point in discussions about space sustainability and the need for international regulations to prevent the creation of new debris.

Loading next visibility...
Identifier
31816, 1999-025CHE
Orbit
SSO
Country
Flag of CNCN / PRC
Related business
Manufacturer
Unknown
Mission
Spacecraft
Bus & Motor
Unknown
Mass
Unknown
Launch date (UTC)
1999-05-10 (27 years ago)
Launch vehicle
Unknown
Launch site
Taiyaun Space Center, China (TSC)
Object type
Payload
Rocket body
Debris
Shape & HBR
Unknown shape, 0.1 m
Radar Cross Section
Small (<0.1 m²)

Expand to show TLE details & history
Last TLE update: 3 days ago

TLE from 3 days ago
0 FENGYUN 1C DEB
1 31816U 99025CHE 25347.78988887  .00002112  00000-0  15279-2 0  9990
2 31816  98.9829 102.0455 0120910 151.8795   4.4280 13.94186907937085
Epoch: 2025-12-13T18:57Z
TLE epoch observation values (Epoch: 2025-12-13T18:57:26.398Z)
Latitude
23.29903°
Longitude
-81.14385°
Altitude
828.862 km
Speed
7.485 km/s
True Right ascension
19h 03m 42s
True Declination
23° 10' 32"
Sunlit
Object was in daylight at epoch
Visualization orbit readout
Latitude
Unknown
Longitude
Unknown
Altitude
Unknown
Speed
Unknown
Apparent Right ascension
Unknown
Apparent Declination
Unknown
Sunlit
N/A
Visualization observer readout
Local Sidereal Time
22:55:54
Azimuth
Unknown
Elevation
Unknown
Doppler factor
Unknown
Orbital elements
Apogee altitude
999.336 km
Perigee altitude
823.065 km
Semi-major axis
7,289.338 km
Eccentricity
0.01209
Inclination
98.9829°
RAAN
102.0455°
Arg. of periapsis
151.8795°
True anomaly
4.53661°
Mean anomaly
4.428°
Eccentric anomaly
4.48214°
Mean motion
3.48747 °/min
Orbital period
103.23 mins
BSTAR
0.0015279
Loading maneuver chart data...
Computing Atmospheric mass density...

Documentation

Showing up to 5 results
|